{"data":{"norad_id":61592,"intl_designator":"2024-187U","name":"STARLINK-32422","alt_names":[],"object_type":"PAYLOAD","status":"ACTIVE","operator":null,"country":"US","launch_date":"2024-10-18","launch_site_code":"AFETR","launch_vehicle":null,"mission":null,"orbit_class":"UNKNOWN","rcs_meters":null,"size_class":null,"mass_kg":null,"dimensions":null,"purposes":["comms"],"wikipedia_slug":null,"has_3d_model":false,"image_url":null,"decayed_at":null,"tle_current":{"epoch":"2026-09-21T06:55:57.618048Z","epoch_age_seconds":123976,"freshness":"FRESH","line1":"1 61592U 24187U   26264.28886132  .00001070  00000+0  42812-4 0  9991","line2":"2 61592  53.1570 217.8194 0001318  85.5468 274.5685 15.34387097109292","mean_motion":15.34387097,"eccentricity":0.0001318,"inclination_deg":53.157,"raan_deg":217.8194,"arg_perigee_deg":85.5468,"mean_anomaly_deg":274.5685,"bstar":4.2812e-5,"rev_number":10929,"period_min":93.848547267861,"perigee_km":461.83996311275,"apogee_km":463.64321870932,"semimajor_km":6840.878590911,"source":"CELESTRAK","updated_at":"2026-09-22T09:00:49.394119Z"}}}